N1DNE Weather Reports


Display with metric or nautical units.
time (UTC)temp
F
wind
direction
speed
MPH
gust
MPH
rain 1hr
in
rain 24hr
in
rain mn
in
humidity
%
barometer
mb
20260906200829 67 28 0.0 2.0 0.00 0.18 0.18 86 1013.6
20260906195828 67 33 1.0 4.0 0.00 0.18 0.18 83 1013.5
20260906194829 67 32 1.0 4.0 0.00 0.18 0.18 82 1013.4
20260906193829 68 69 1.0 5.0 0.00 0.18 0.18 80 1013.4
20260906192829 68 76 1.0 5.0 0.00 0.18 0.18 78 1013.4
20260906191828 68 41 0.0 0.0 0.00 0.18 0.18 79 1013.3
20260906190829 69 41 0.0 2.0 0.00 0.18 0.18 80 1013.3
20260906185824 69 41 0.0 1.0 0.00 0.18 0.18 79 1013.3
20260906184823 69 41 0.0 0.0 0.00 0.18 0.18 82 1013.4
20260906184746 69 41 0.0 2.0 0.00 0.18 0.18 82 1013.4
20260906182823 68 41 1.0 3.0 0.00 0.18 0.18 82 1013.5
20260906182321 67 44 0.0 3.0 0.00 0.18 0.18 86 1013.5
20260906180823 66 59 1.0 3.0 0.00 0.18 0.18 86 1013.6
20260906175824 66 32 1.0 4.0 0.00 0.18 0.18 85 1013.7
20260906175300 66 28 0.0 4.0 0.00 0.18 0.18 86 1013.8
20260906173825 65 27 1.0 4.0 0.00 0.18 0.18 89 1013.8
20260906172817 65 9 2.0 6.0 0.00 0.19 0.18 90 1013.8
20260906172258 64 48 0.0 5.0 0.00 0.19 0.18 92 1014.0
20260906170818 64 42 0.0 5.0 0.00 0.19 0.18 92 1014.1
20260906165816 64 28 0.0 1.0 0.00 0.19 0.18 93 1014.1
20260906164815 64 28 0.0 3.0 0.00 0.19 0.18 93 1014.2
20260906163816 64 30 1.0 4.0 0.01 0.19 0.18 93 1014.2
20260906163226 63 68 1.0 3.0 0.01 0.19 0.18 94 1014.4
20260906162856 63 46 1.0 4.0 0.01 0.19 0.18 94 1014.3
20260906160815 63 68 1.0 3.0 0.01 0.19 0.18 94 1014.4
20260906155812 63 62 0.0 2.0 0.02 0.19 0.18 94 1014.4
20260906154812 62 62 1.0 3.0 0.02 0.19 0.18 95 1014.5
20260906154253 62 62 1.0 3.0 0.01 0.18 0.17 95 1014.4
20260906152810 62 57 1.0 3.0 0.01 0.18 0.17 94 1014.5
20260906151810 62 59 1.0 3.0 0.01 0.18 0.17 94 1014.6
20260906150810 62 42 1.0 3.0 0.01 0.18 0.17 94 1014.5
20260906145812 63 80 1.0 5.0 0.00 0.17 0.16 94 1014.6
20260906144810 63 42 0.0 1.0 0.00 0.17 0.16 95 1014.4
20260906143810 62 42 0.0 3.0 0.00 0.17 0.16 95 1014.3
20260906142811 62 41 1.0 4.0 0.00 0.17 0.16 95 1014.3
20260906141809 62 58 1.0 4.0 0.00 0.17 0.16 96 1014.3
20260906141254 62 72 1.0 3.0 0.00 0.17 0.16 95 1014.3
20260906140243 61 67 1.0 4.0 0.00 0.17 0.16 96 1014.3
20260906135726 61 51 1.0 4.0 0.00 0.17 0.16 96 1014.2
20260906133808 61 45 1.0 4.0 0.00 0.17 0.16 96 1014.2
20260906132808 61 63 1.0 4.0 0.00 0.17 0.16 96 1014.2
20260906131809 61 62 1.0 4.0 0.00 0.17 0.16 96 1014.0
20260906130808 60 59 1.0 4.0 0.00 0.17 0.16 96 1014.0
20260906125809 60 55 1.0 4.0 0.00 0.17 0.16 96 1014.0
20260906124804 60 31 1.0 4.0 0.00 0.17 0.16 96 1014.0
20260906123803 60 46 0.0 3.0 0.00 0.17 0.16 96 1014.1
20260906122806 60 44 1.0 2.0 0.01 0.17 0.16 95 1014.0
20260906121805 60 43 0.0 3.0 0.01 0.17 0.16 96 1013.9
20260906120805 60 43 0.0 3.0 0.01 0.17 0.16 96 1013.8
20260906115804 60 58 0.0 2.0 0.01 0.17 0.16 96 1013.6
20260906114803 60 51 0.0 0.0 0.01 0.17 0.16 96 1013.5
20260906113804 60 51 0.0 0.0 0.01 0.17 0.16 96 1013.4
20260906112805 60 51 0.0 0.0 0.00 0.16 0.15 96 1013.3
20260906111805 60 51 0.0 0.0 0.00 0.16 0.15 96 1013.2
20260906110801 60 51 0.0 0.0 0.00 0.16 0.15 96 1013.1
20260906110246 60 51 0.0 0.0 0.00 0.16 0.15 96 1012.8
20260906104802 60 51 0.0 0.0 0.00 0.16 0.15 95 1012.6
20260906103756 60 51 0.0 0.0 0.00 0.16 0.15 95 1012.5
20260906102756 60 51 0.0 0.0 0.00 0.16 0.15 95 1012.4
20260906101757 60 51 0.0 0.0 0.00 0.16 0.15 95 1012.2
20260906100756 60 51 0.0 0.0 0.00 0.16 0.15 95 1012.3
20260906095757 60 51 0.0 0.0 0.00 0.16 0.15 95 1012.1
20260906094756 60 51 0.0 0.0 0.00 0.16 0.15 96 1012.0
20260906093758 60 51 0.0 0.0 0.00 0.16 0.15 96 1012.0
20260906092755 60 51 0.0 0.0 0.00 0.16 0.15 95 1011.9
20260906091757 60 51 0.0 0.0 0.00 0.16 0.15 95 1011.9
20260906090750 61 51 0.0 0.0 0.00 0.16 0.15 95 1011.5
20260906085750 61 51 0.0 0.0 0.00 0.16 0.15 95 1011.7
20260906084751 61 51 0.0 0.0 0.00 0.16 0.15 95 1011.7
20260906083750 61 51 0.0 0.0 0.00 0.16 0.15 95 1011.7
20260906082750 61 51 0.0 0.0 0.00 0.16 0.15 95 1011.6
20260906082229 61 51 0.0 0.0 0.01 0.16 0.15 95 1011.5
20260906081226 61 51 0.0 0.0 0.01 0.16 0.15 95 1011.6
20260906075749 61 51 0.0 0.0 0.01 0.16 0.15 95 1011.7
20260906074752 61 51 0.0 0.0 0.01 0.16 0.15 95 1011.6
20260906073744 61 51 0.0 0.0 0.01 0.16 0.15 95 1011.6
20260906072743 61 51 0.0 0.0 0.01 0.16 0.15 95 1011.7
20260906071745 61 51 0.0 0.0 0.01 0.15 0.14 95 1011.6
20260906070743 61 51 0.0 0.0 0.05 0.15 0.14 95 1011.8
20260906065745 61 51 0.0 0.0 0.08 0.15 0.14 95 1011.8
20260906064744 61 51 0.0 0.0 0.08 0.15 0.14 95 1011.9
20260906063743 62 51 0.0 1.0 0.09 0.15 0.14 94 1011.8
20260906062745 62 51 0.0 1.0 0.10 0.15 0.14 94 1011.9
20260906061745 62 51 0.0 1.0 0.10 0.14 0.13 94 1011.9
20260906060740 62 51 0.0 2.0 0.07 0.10 0.09 94 1011.9
20260906055745 63 51 0.0 0.0 0.05 0.07 0.06 94 1011.9
20260906054742 63 51 0.0 0.0 0.06 0.07 0.06 94 1012.0
20260906054228 63 51 0.0 0.0 0.05 0.06 0.05 93 1011.9
20260906052742 63 51 0.0 0.0 0.04 0.05 0.04 93 1011.9
20260906051742 64 51 0.0 0.0 0.03 0.04 0.03 92 1011.9
20260906051226 64 51 0.0 0.0 0.02 0.03 0.02 92 1011.9
20260906045742 64 51 0.0 1.0 0.01 0.02 0.01 92 1011.9
20260906044738 65 51 0.0 1.0 0.00 0.01 0.00 91 1011.7
20260906043740 65 51 0.0 3.0 0.00 0.01 0.00 91 1011.6
20260906042739 65 52 0.0 4.0 0.00 0.01 0.00 91 1011.5
20260906041740 65 15 0.0 1.0 0.00 0.01 0.00 91 1011.5
20260906041214 65 15 0.0 1.0 0.00 0.01 0.00 91 1011.4
20260906035737 65 15 0.0 1.0 0.00 0.01 0.01 91 1011.4
20260906034738 65 15 1.0 4.0 0.00 0.01 0.01 91 1011.4
20260906033738 65 74 0.0 1.0 0.00 0.01 0.01 92 1011.3
20260906032732 65 74 0.0 1.0 0.00 0.01 0.01 93 1011.2
20260906031731 65 74 0.0 0.0 0.00 0.01 0.01 93 1011.1
20260906030732 65 74 0.0 0.0 0.00 0.01 0.01 93 1011.0
20260906025732 65 74 0.0 0.0 0.00 0.01 0.01 93 1011.1
20260906025650 65 74 0.0 0.0 0.00 0.01 0.01 93 1011.1
20260906023732 65 74 0.0 0.0 0.00 0.01 0.01 93 1011.1
20260906022732 65 74 0.0 2.0 0.00 0.01 0.01 93 1011.1
20260906021731 65 76 0.0 0.0 0.00 0.01 0.01 93 1011.1
20260906020733 65 76 0.0 1.0 0.00 0.01 0.01 93 1011.0
20260906015729 65 76 0.0 1.0 0.00 0.01 0.01 93 1010.8
20260906014730 65 76 0.0 0.0 0.00 0.01 0.01 93 1010.9
20260906013730 65 76 0.0 0.0 0.00 0.01 0.01 92 1010.8
20260906012729 65 76 0.0 1.0 0.00 0.01 0.01 92 1010.7
20260906011729 66 76 0.0 0.0 0.00 0.01 0.01 91 1010.8
20260906010730 66 76 0.0 0.0 0.00 0.01 0.01 90 1010.6
20260906005730 67 76 0.0 0.0 0.00 0.01 0.01 90 1010.4
20260906005659 67 76 0.0 1.0 0.00 0.01 0.01 90 1010.2
20260906003727 67 76 0.0 3.0 0.00 0.01 0.01 90 1010.2
20260906003216 67 76 0.0 0.0 0.00 0.01 0.01 90 1010.3
20260906001727 68 76 0.0 0.0 0.00 0.01 0.01 90 1010.1
20260906000727 68 76 0.0 0.0 0.00 0.01 0.01 91 1010.1
20260905235727 68 76 0.0 1.0 0.00 0.01 0.01 90 1009.9
20260905234727 68 76 0.0 3.0 0.00 0.01 0.01 90 1009.8
20260905233727 69 81 0.0 1.0 0.00 0.01 0.01 89 1009.4
20260905232725 69 81 0.0 0.0 0.00 0.01 0.01 89 1009.4
20260905231724 69 81 0.0 1.0 0.00 0.01 0.01 88 1009.3
20260905230724 70 81 0.0 0.0 0.00 0.01 0.01 87 1009.3
20260905225723 70 81 0.0 0.0 0.00 0.01 0.01 86 1009.2
20260905224723 70 81 0.0 0.0 0.00 0.01 0.01 86 1009.3
20260905223724 71 81 0.0 0.0 0.00 0.01 0.01 86 1009.2
20260905222718 71 81 0.0 0.0 0.00 0.01 0.01 86 1009.3
20260905221718 71 81 0.0 0.0 0.00 0.01 0.01 85 1009.2
20260905221159 71 81 0.0 0.0 0.00 0.01 0.01 85 1009.0
20260905215720 71 81 0.0 0.0 0.00 0.01 0.01 85 1009.0
20260905215200 71 81 0.0 0.0 0.00 0.01 0.01 84 1008.9
20260905213719 71 81 0.0 1.0 0.00 0.01 0.01 85 1008.8
20260905212720 71 81 0.0 0.0 0.00 0.01 0.01 86 1008.6
20260905211718 71 81 0.0 0.0 0.00 0.01 0.01 85 1008.6
20260905210719 71 81 0.0 2.0 0.00 0.01 0.01 84 1008.4
20260905205720 71 81 0.0 3.0 0.00 0.01 0.01 87 1008.4
20260905204719 71 81 0.0 2.0 0.00 0.01 0.01 89 1008.4
20260905203714 70 81 0.0 1.0 0.00 0.01 0.01 90 1008.3
20260905202714 70 81 0.0 2.0 0.00 0.01 0.01 91 1008.3
20260905201712 70 81 0.0 0.0 0.00 0.01 0.01 91 1008.3